Weather History for Rensselaer, IN

Change the Weather History Date:

Wednesday, June 19, 2013

  Actual Average (KVPZ) Record (KVPZ)
Temperature  
Mean Temperature 68 °F 70 °F  
Max Temperature 78 °F 81 °F 91 °F (2012)
Min Temperature 57 °F 60 °F 47 °F (2004)
Degree Days  
Heating Degree Days 0 1  
Month to date heating degree days 37  
Since 1 June heating degree days 37  
Since 1 July heating degree days 6316  
Cooling Degree Days 2 6  
Month to date cooling degree days 86  
Year to date cooling degree days 133  
Since 1 June cooling degree days 86  
Growing Degree Days 18 (Base 50)    
Moisture  
Dew Point 52 °F    
Average Humidity 60    
Maximum Humidity 88    
Minimum Humidity 34    
Precipitation  
Precipitation 0.00 in 0.11 in 0.59 in (2009)
Month to date precipitation 2.41  
Year to date precipitation 15.39  
Sea Level Pressure  
Sea Level Pressure 30.10 in    
Wind  
Wind Speed 6 mph (ENE)    
Max Wind Speed 13 mph    
Max Gust Speed -    
Visibility 10 miles    
Events      
T = Trace of Precipitation, MM = Missing Value Source: NWS Daily Summary

Daily Weather History Graph

Daily Weather History Graph

Search for Another Location

Airport:

Trip Planner

Search our weather history database for the weather conditions in past years. The results will help you decide how hot, cold, wet, or windy it might be!

Date:

Astronomy

Jun. 19, 2013 Rise Set
Actual Time 5:16 AM CDT 8:23 PM CDT
Civil Twilight 4:42 AM CDT 8:57 PM CDT
Nautical Twilight 3:59 AM CDT 9:40 PM CDT
Astronomical Twilight 3:09 AM CDT 10:31 PM CDT
Moon 4:14 PM CDT (6/19) 2:02 AM CDT (6/19)
Length of Visible Light 16h 14m
Length of Day
15h 07m
Waxing Gibbous, 80% of the Moon is Illuminated
Jun 19
Waxing Gibbous
Jun 23
Full
Jun 29
Last Quarter
Jul 8
New
Jul 15
First Quarter

Hourly Weather History & Observations

Time (CDT) Temp. Dew Point Humidity Pressure Visibility Wind Dir Wind Speed Gust Speed Precip Events Conditions
12:15 AM 59.0 °F 53.6 °F 82% 30.05 in 10.0 mi North 6.9 mph - N/A   Clear
12:35 AM 59.0 °F 53.6 °F 82% 30.05 in 10.0 mi NNE 5.8 mph - N/A   Clear
12:55 AM 59.0 °F 53.6 °F 82% 30.05 in 10.0 mi NE 4.6 mph - N/A   Clear
1:15 AM 59.0 °F 55.4 °F 88% 30.05 in 10.0 mi NNE 6.9 mph - N/A   Clear
1:35 AM 59.0 °F 55.4 °F 88% 30.06 in 10.0 mi NE 5.8 mph - N/A   Clear
1:55 AM 59.0 °F 55.4 °F 88% 30.06 in 10.0 mi NE 6.9 mph - N/A   Clear
2:15 AM 60.8 °F 55.4 °F 82% 30.06 in 10.0 mi NE 6.9 mph - N/A   Clear
2:35 AM 59.0 °F 55.4 °F 88% 30.06 in 10.0 mi NE 6.9 mph - N/A   Clear
2:55 AM 59.0 °F 55.4 °F 88% 30.06 in 10.0 mi NE 6.9 mph - N/A   Clear
3:15 AM 59.0 °F 53.6 °F 82% 30.07 in 10.0 mi NE 8.1 mph - N/A   Clear
3:35 AM 59.0 °F 53.6 °F 82% 30.06 in 10.0 mi NE 8.1 mph - N/A   Clear
3:55 AM 59.0 °F 53.6 °F 82% 30.07 in 10.0 mi NE 8.1 mph - N/A   Clear
4:15 AM 59.0 °F 53.6 °F 82% 30.08 in 10.0 mi NE 6.9 mph - N/A   Clear
4:35 AM 59.0 °F 53.6 °F 82% 30.09 in 10.0 mi NE 8.1 mph - N/A   Clear
4:55 AM 59.0 °F 51.8 °F 77% 30.09 in 10.0 mi NE 8.1 mph - N/A   Clear
5:15 AM 57.2 °F 51.8 °F 82% 30.10 in 10.0 mi ENE 5.8 mph - N/A   Clear
5:35 AM 57.2 °F 51.8 °F 82% 30.10 in 10.0 mi ENE 6.9 mph - N/A   Scattered Clouds
5:55 AM 59.0 °F 51.8 °F 77% 30.11 in 10.0 mi ENE 8.1 mph - N/A   Mostly Cloudy
6:15 AM 59.0 °F 51.8 °F 77% 30.11 in 10.0 mi ENE 9.2 mph - N/A   Mostly Cloudy
6:35 AM 60.8 °F 51.8 °F 72% 30.11 in 10.0 mi ENE 9.2 mph - N/A   Scattered Clouds
6:55 AM 60.8 °F 51.8 °F 72% 30.12 in 10.0 mi East 9.2 mph - N/A   Clear
7:15 AM 60.8 °F 51.8 °F 72% 30.13 in 10.0 mi East 8.1 mph - N/A   Clear
7:35 AM 62.6 °F 53.6 °F 72% 30.14 in 10.0 mi East 10.4 mph - N/A   Clear
7:55 AM 62.6 °F 53.6 °F 72% 30.13 in 10.0 mi East 12.7 mph - N/A   Clear
8:15 AM 64.4 °F 53.6 °F 68% 30.14 in 10.0 mi East 9.2 mph - N/A   Clear
8:35 AM 64.4 °F 53.6 °F 68% 30.14 in 10.0 mi ENE 8.1 mph - N/A   Clear
8:55 AM 66.2 °F 53.6 °F 64% 30.14 in 10.0 mi ENE 6.9 mph - N/A   Clear
9:15 AM 68.0 °F 53.6 °F 60% 30.14 in 10.0 mi East 8.1 mph - N/A   Clear
9:35 AM 68.0 °F 55.4 °F 64% 30.14 in 10.0 mi East 5.8 mph - N/A   Clear
9:55 AM 69.8 °F 53.6 °F 56% 30.14 in 10.0 mi East 6.9 mph - N/A   Clear
10:15 AM 69.8 °F 55.4 °F 60% 30.14 in 10.0 mi ENE 5.8 mph - N/A   Clear
10:35 AM 71.6 °F 55.4 °F 57% 30.14 in 10.0 mi ENE 4.6 mph - N/A   Clear
10:55 AM 71.6 °F 53.6 °F 53% 30.14 in 10.0 mi ENE 6.9 mph - N/A   Clear
11:15 AM 71.6 °F 51.8 °F 50% 30.14 in 10.0 mi ENE 5.8 mph - N/A   Clear
11:35 AM 73.4 °F 51.8 °F 47% 30.13 in 10.0 mi East 5.8 mph - N/A   Clear
11:55 AM 73.4 °F 51.8 °F 47% 30.13 in 10.0 mi NE 3.5 mph - N/A   Clear
12:15 PM 73.4 °F 51.8 °F 47% 30.13 in 10.0 mi NE 4.6 mph - N/A   Clear
12:35 PM 75.2 °F 51.8 °F 44% 30.12 in 10.0 mi NE 4.6 mph - N/A   Clear
12:55 PM 75.2 °F 51.8 °F 44% 30.11 in 10.0 mi East 4.6 mph - N/A   Clear
1:15 PM 75.2 °F 51.8 °F 44% 30.11 in 10.0 mi NE 6.9 mph - N/A   Scattered Clouds
1:35 PM 75.2 °F 51.8 °F 44% 30.10 in 10.0 mi NE 4.6 mph - N/A   Scattered Clouds
1:55 PM 77.0 °F 51.8 °F 41% 30.10 in 10.0 mi NNE 6.9 mph - N/A   Scattered Clouds
2:15 PM 77.0 °F 51.8 °F 41% 30.10 in 10.0 mi ENE 5.8 mph - N/A   Clear
2:35 PM 77.0 °F 51.8 °F 41% 30.10 in 10.0 mi East 4.6 mph - N/A   Clear
2:55 PM 75.2 °F 51.8 °F 44% 30.10 in 10.0 mi NW 4.6 mph - N/A   Scattered Clouds
3:15 PM 77.0 °F 51.8 °F 41% 30.09 in 10.0 mi East 3.5 mph - N/A   Scattered Clouds
3:35 PM 78.8 °F 51.8 °F 39% 30.09 in 10.0 mi Calm Calm - N/A   Scattered Clouds
3:55 PM 78.8 °F 50.0 °F 36% 30.09 in 10.0 mi NE 4.6 mph - N/A   Mostly Cloudy
4:15 PM 77.0 °F 48.2 °F 36% 30.08 in 10.0 mi Calm Calm - N/A   Mostly Cloudy
4:35 PM 77.0 °F 50.0 °F 39% 30.08 in 10.0 mi Calm Calm - N/A   Clear
4:55 PM 78.8 °F 48.2 °F 34% 30.08 in 10.0 mi Calm Calm - N/A   Clear
5:15 PM 78.8 °F 48.2 °F 34% 30.07 in 10.0 mi NE 4.6 mph - N/A   Clear
5:35 PM 78.8 °F 48.2 °F 34% 30.08 in 10.0 mi Calm Calm - N/A   Scattered Clouds
5:55 PM 78.8 °F 48.2 °F 34% 30.08 in 10.0 mi ESE 3.5 mph - N/A   Mostly Cloudy
6:15 PM 78.8 °F 50.0 °F 36% 30.09 in 10.0 mi Calm Calm - N/A   Mostly Cloudy
6:35 PM 78.8 °F 50.0 °F 36% 30.09 in 10.0 mi ENE 3.5 mph - N/A   Scattered Clouds
6:55 PM 77.0 °F 50.0 °F 39% 30.09 in 10.0 mi East 3.5 mph - N/A   Clear
7:15 PM 77.0 °F 50.0 °F 39% 30.09 in 10.0 mi ENE 5.8 mph - N/A   Clear
7:35 PM 75.2 °F 51.8 °F 44% 30.09 in 10.0 mi East 3.5 mph - N/A   Clear
7:55 PM 73.4 °F 53.6 °F 50% 30.09 in 10.0 mi ENE 3.5 mph - N/A   Clear
8:15 PM 71.6 °F 51.8 °F 50% 30.10 in 10.0 mi NNE 3.5 mph - N/A   Clear
8:35 PM 69.8 °F 50.0 °F 49% 30.10 in 10.0 mi NNE 5.8 mph - N/A   Clear
8:55 PM 69.8 °F 50.0 °F 49% 30.10 in 10.0 mi NE 6.9 mph - N/A   Clear
9:15 PM 68.0 °F 51.8 °F 56% 30.10 in 10.0 mi NE 5.8 mph - N/A   Clear
9:35 PM 68.0 °F 50.0 °F 52% 30.11 in 10.0 mi NE 5.8 mph - N/A   Clear
9:55 PM 68.0 °F 51.8 °F 56% 30.11 in 10.0 mi NE 6.9 mph - N/A   Clear
10:15 PM 68.0 °F 51.8 °F 56% 30.11 in 10.0 mi NE 6.9 mph - N/A   Clear
10:35 PM 64.4 °F 51.8 °F 64% 30.12 in 10.0 mi NE 5.8 mph - N/A   Clear
10:55 PM 64.4 °F 51.8 °F 64% 30.12 in 10.0 mi NE 4.6 mph - N/A   Clear
11:15 PM 64.4 °F 51.8 °F 64% 30.12 in 10.0 mi ENE 4.6 mph - N/A   Clear
11:35 PM 64.4 °F 53.6 °F 68% 30.13 in 10.0 mi ENE 3.5 mph - N/A   Mostly Cloudy
11:55 PM 64.4 °F 53.6 °F 68% 30.13 in 10.0 mi ENE 4.6 mph - N/A   Mostly Cloudy